Hourly Weather Bartkow

Today, 18 April, Sunday

Time Temperature Precipitation Wind Pressure Humidity
00:00 +5°C° 0 mm 1 mps 749 mmHg 95%
01:00 +4°C° 0 mm 1 mps 748 mmHg 95%
02:00 +5°C° 0 mm 1 mps 748 mmHg 95%
03:00 +5°C° 0 mm 1 mps 748 mmHg 94%
04:00 +5°C° 0 mm 1 mps 748 mmHg 94%
05:00 +6°C° 0.1 mm 1 mps 748 mmHg 93%
06:00 +6°C° 0.1 mm 1 mps 748 mmHg 93%
07:00 +5°C° 0 mm 0 mps 748 mmHg 93%
08:00 +6°C° 0.2 mm 1 mps 748 mmHg 91%
09:00 +7°C° 0.2 mm 1 mps 748 mmHg 90%
10:00 +7°C° 0.2 mm 1 mps 748 mmHg 89%
11:00 +8°C° 0 mm 1 mps 748 mmHg 83%
12:00 +9°C° 0 mm 1 mps 748 mmHg 77%
13:00 +9°C° 0 mm 2 mps 748 mmHg 71%
14:00 +9°C° 0.1 mm 2 mps 748 mmHg 71%
15:00 +9°C° 0.1 mm 2 mps 748 mmHg 72%
16:00 +9°C° 0.1 mm 2 mps 748 mmHg 72%
17:00 +8°C° 0 mm 2 mps 748 mmHg 76%
18:00 +8°C° 0 mm 2 mps 748 mmHg 79%
19:00 +7°C° 0 mm 2 mps 748 mmHg 82%
20:00 +7°C° 0 mm 2 mps 749 mmHg 82%
21:00 +8°C° 0 mm 1 mps 749 mmHg 81%
22:00 +8°C° 0 mm 1 mps 749 mmHg 81%
23:00 +8°C° 0 mm 1 mps 749 mmHg 80%

Tomorrow, 19 April, Monday

Time Temperature Precipitation Wind Pressure Humidity
00:00 +8°C° 0 mm 1 mps 749 mmHg 80%
01:00 +8°C° 0 mm 1 mps 749 mmHg 80%
02:00 +8°C° 0 mm 1 mps 748 mmHg 81%
03:00 +7°C° 0 mm 2 mps 748 mmHg 83%
04:00 +6°C° 0 mm 2 mps 748 mmHg 84%
05:00 +7°C° 0 mm 2 mps 748 mmHg 84%
06:00 +7°C° 0 mm 2 mps 748 mmHg 84%
07:00 +8°C° 0 mm 2 mps 748 mmHg 83%
08:00 +8°C° 0.1 mm 2 mps 748 mmHg 82%
09:00 +9°C° 0.1 mm 2 mps 748 mmHg 81%
10:00 +11°C° 0.1 mm 1 mps 748 mmHg 81%
11:00 +10°C° 0.2 mm 2 mps 748 mmHg 82%
12:00 +10°C° 0.2 mm 2 mps 748 mmHg 84%
13:00 +10°C° 0.2 mm 2 mps 747 mmHg 85%
14:00 +12°C° 0.2 mm 2 mps 747 mmHg 78%
15:00 +13°C° 0.2 mm 2 mps 747 mmHg 71%
16:00 +14°C° 0.2 mm 2 mps 746 mmHg 63%
17:00 +13°C° 0.2 mm 2 mps 746 mmHg 69%
18:00 +10°C° 0.2 mm 2 mps 746 mmHg 74%
19:00 +9°C° 0.2 mm 2 mps 746 mmHg 80%
20:00 +8°C° 0 mm 2 mps 746 mmHg 80%
21:00 +8°C° 0 mm 2 mps 746 mmHg 80%
22:00 +7°C° 0 mm 3 mps 746 mmHg 81%
23:00 +7°C° 0 mm 2 mps 746 mmHg 80%

Day after tomorrow, 20 April, Tuesday

Time Temperature Precipitation Wind Pressure Humidity
00:00 +7°C° 0 mm 2 mps 746 mmHg 80%
01:00 +7°C° 0 mm 2 mps 746 mmHg 79%
02:00 +7°C° 0 mm 2 mps 746 mmHg 78%
03:00 +7°C° 0 mm 2 mps 746 mmHg 76%
04:00 +7°C° 0 mm 2 mps 746 mmHg 75%
05:00 +7°C° 0 mm 2 mps 746 mmHg 76%
06:00 +8°C° 0 mm 2 mps 746 mmHg 77%
07:00 +8°C° 0 mm 2 mps 746 mmHg 78%
08:00 +9°C° 0.2 mm 3 mps 746 mmHg 73%
09:00 +11°C° 0.2 mm 3 mps 746 mmHg 67%
10:00 +12°C° 0.2 mm 4 mps 746 mmHg 61%
11:00 +12°C° 0.1 mm 4 mps 746 mmHg 58%
12:00 +12°C° 0.1 mm 4 mps 746 mmHg 55%
13:00 +13°C° 0.1 mm 4 mps 745 mmHg 53%
14:00 +12°C° 0 mm 4 mps 745 mmHg 53%
15:00 +12°C° 0 mm 4 mps 745 mmHg 54%
16:00 +12°C° 0 mm 3 mps 745 mmHg 54%
17:00 +11°C° 0 mm 3 mps 745 mmHg 60%
18:00 +9°C° 0 mm 2 mps 745 mmHg 65%
19:00 +8°C° 0 mm 2 mps 745 mmHg 71%
20:00 +7°C° 0 mm 2 mps 745 mmHg 73%
21:00 +8°C° 0 mm 1 mps 745 mmHg 74%
22:00 +7°C° 0 mm 1 mps 745 mmHg 76%
23:00 +7°C° 0 mm 1 mps 745 mmHg 77%

21 April, Wednesday

Time Temperature Precipitation Wind Pressure Humidity
00:00 +7°C° 0 mm 1 mps 745 mmHg 77%
01:00 +6°C° 0 mm 1 mps 745 mmHg 78%
02:00 +6°C° 0 mm 1 mps 745 mmHg 79%
03:00 +6°C° 0 mm 1 mps 745 mmHg 80%
04:00 +5°C° 0 mm 1 mps 745 mmHg 81%
05:00 +6°C° 0.1 mm 1 mps 745 mmHg 80%
06:00 +6°C° 0.1 mm 2 mps 745 mmHg 79%
07:00 +7°C° 0.1 mm 2 mps 745 mmHg 78%
08:00 +8°C° 0.1 mm 2 mps 745 mmHg 76%
09:00 +9°C° 0.1 mm 3 mps 745 mmHg 75%
10:00 +10°C° 0.1 mm 3 mps 745 mmHg 73%
11:00 +11°C° 0.3 mm 3 mps 744 mmHg 70%
12:00 +12°C° 0.3 mm 3 mps 744 mmHg 67%
13:00 +13°C° 0.3 mm 4 mps 744 mmHg 64%
14:00 +13°C° 0.3 mm 4 mps 743 mmHg 63%
15:00 +13°C° 0.3 mm 4 mps 743 mmHg 63%
16:00 +13°C° 0.3 mm 4 mps 743 mmHg 62%
17:00 +12°C° 0.1 mm 4 mps 743 mmHg 66%
18:00 +11°C° 0.1 mm 3 mps 743 mmHg 70%
19:00 +10°C° 0.1 mm 3 mps 743 mmHg 74%
20:00 +9°C° 0 mm 3 mps 743 mmHg 77%
21:00 +8°C° 0 mm 3 mps 744 mmHg 81%
22:00 +8°C° 0 mm 3 mps 744 mmHg 84%
23:00 +7°C° 0 mm 3 mps 744 mmHg 84%

22 April, Thursday

Time Temperature Precipitation Wind Pressure Humidity
00:00 +7°C° 0 mm 3 mps 744 mmHg 85%
01:00 +7°C° 0 mm 3 mps 744 mmHg 85%
02:00 +5°C° 0 mm 4 mps 744 mmHg 83%
03:00 +3°C° 0 mm 5 mps 745 mmHg 82%
04:00 +3°C° 0 mm 6 mps 745 mmHg 80%
05:00 +2°C° 0 mm 6 mps 745 mmHg 78%
06:00 +2°C° 0 mm 7 mps 745 mmHg 76%
07:00 0°C° 0 mm 7 mps 746 mmHg 75%
08:00 +2°C° 0 mm 7 mps 746 mmHg 71%
09:00 +3°C° 0 mm 7 mps 746 mmHg 66%
10:00 +4°C° 0 mm 7 mps 746 mmHg 62%
11:00 +5°C° 0.1 mm 8 mps 746 mmHg 58%
12:00 +6°C° 0.1 mm 8 mps 747 mmHg 54%
13:00 +7°C° 0.1 mm 8 mps 747 mmHg 49%
14:00 +8°C° 0 mm 7 mps 747 mmHg 48%
15:00 +9°C° 0 mm 7 mps 747 mmHg 47%
16:00 +9°C° 0 mm 7 mps 747 mmHg 46%
17:00 +8°C° 0 mm 6 mps 747 mmHg 47%
18:00 +5°C° 0 mm 6 mps 748 mmHg 48%
19:00 +5°C° 0 mm 5 mps 748 mmHg 50%
20:00 +3°C° 0 mm 5 mps 748 mmHg 53%
21:00 +3°C° 0 mm 4 mps 749 mmHg 56%
22:00 +1°C° 0 mm 4 mps 749 mmHg 60%
23:00 0°C° 0 mm 4 mps 750 mmHg 62%

23 April, Friday

Time Temperature Precipitation Wind Pressure Humidity
00:00 0°C° 0 mm 4 mps 750 mmHg 65%
01:00 -1°C° 0 mm 4 mps 750 mmHg 67%
02:00 -1°C° 0 mm 4 mps 750 mmHg 69%
03:00 0°C° 0 mm 3 mps 751 mmHg 71%
04:00 -1°C° 0 mm 3 mps 751 mmHg 73%
05:00 0°C° 0 mm 4 mps 751 mmHg 70%
06:00 +1°C° 0 mm 5 mps 752 mmHg 66%
07:00 +2°C° 0 mm 5 mps 752 mmHg 63%
08:00 +4°C° 0 mm 6 mps 752 mmHg 57%
09:00 +5°C° 0 mm 6 mps 752 mmHg 51%
10:00 +7°C° 0 mm 6 mps 753 mmHg 45%
11:00 +8°C° 0 mm 6 mps 753 mmHg 42%
12:00 +9°C° 0 mm 6 mps 753 mmHg 40%
13:00 +9°C° 0 mm 6 mps 753 mmHg 37%
14:00 +10°C° 0 mm 6 mps 753 mmHg 39%
15:00 +10°C° 0 mm 6 mps 753 mmHg 41%
16:00 +10°C° 0 mm 5 mps 753 mmHg 42%
17:00 +8°C° 0 mm 4 mps 753 mmHg 47%
18:00 +7°C° 0 mm 3 mps 753 mmHg 53%
19:00 +6°C° 0 mm 2 mps 753 mmHg 58%
20:00 +5°C° 0 mm 2 mps 753 mmHg 58%
21:00 +5°C° 0 mm 1 mps 753 mmHg 58%
22:00 +4°C° 0 mm 1 mps 754 mmHg 58%
23:00 +4°C° 0 mm 1 mps 753 mmHg 58%
Show more